User: anonymous   Login
Location: Caltech
(34.1382°N, 118.1253°W)
Time: 15:05:58
(UTC-07:00)
Language:

Cosmos 2084 - Orbit

View from above orbital plane
View from above orbital plane
View from above satellite
View from above satellite

Ground track
Ground track

The orbit data is extracted from the following two-line orbital elements,

1 20663U 90055A   16149.16676987  .00000529  00000-0  64198-4 0  9995
2 20663  62.7937  72.7999 0122503  51.6537 309.5489 14.91204276402387
Epoch (UTC): 28 May 2016 04:00:08
Eccentricity: 0.0122503
inclination: 62.7937°
perigee height: 509 km
apogee height: 679 km
right ascension of ascending node: 72.7999°
argument of perigee: 51.6537°
revolutions per day: 14.91204276
mean anomaly at epoch: 309.5489°
orbit number at epoch: 40238

The dashed part of the orbit path shows where the satellite is in the earth's shadow,  

DLR